JLY1182 SAEZ-SBGL

Flight info

Callsign JLY1182
Flight time N/A
Altitude 39000
Route KUKEN1A KUKEN UM654 GAMOT DCT USTUN DCT DOKRO UN857 AKNUB
Aircraft B77W/H-SDE1E2E3FGHIJ2J3J4J5M1RWXY/LB1D1

Departure

Time N/A
Airport Ezeiza International Airport - Ministro Pistarini (SAEZ)

Arrival

Time 2026-05-06 02:16
Airport Rio Galeão – Tom Jobim International Airport (SBGL)
Time Latitude Longitude Altitude Speed Heading
2026-05-06 00:22 -32.03343 -56.38330 37019 ft 520 kts 30°
2026-05-06 00:22 -31.97486 -56.33427 37027 ft 520 kts 30°
2026-05-06 00:23 -31.91565 -56.28529 37020 ft 520 kts 29°
2026-05-06 00:23 -31.85637 -56.23647 37020 ft 520 kts 29°
2026-05-06 00:24 -31.79709 -56.18769 37014 ft 520 kts 30°
2026-05-06 00:24 -31.74786 -56.14721 37026 ft 519 kts 30°
2026-05-06 00:25 -31.68831 -56.09833 37029 ft 519 kts 30°
2026-05-06 00:25 -31.62953 -56.05014 37030 ft 518 kts 30°
2026-05-06 00:26 -31.57037 -56.00170 37031 ft 518 kts 30°
2026-05-06 00:26 -31.51122 -55.95332 37015 ft 518 kts 30°
2026-05-06 00:27 -31.45201 -55.90498 37027 ft 519 kts 30°
2026-05-06 00:27 -31.39276 -55.85667 37031 ft 519 kts 30°
2026-05-06 00:28 -31.33352 -55.80845 37013 ft 519 kts 30°
2026-05-06 00:28 -31.27420 -55.76025 37019 ft 520 kts 29°
2026-05-06 00:29 -31.21467 -55.71195 37029 ft 521 kts 30°
2026-05-06 00:29 -31.15485 -55.66349 37022 ft 525 kts 30°
2026-05-06 00:30 -31.09471 -55.61483 37021 ft 527 kts 30°
2026-05-06 00:30 -31.03425 -55.56596 37021 ft 529 kts 30°
2026-05-06 00:31 -30.97497 -55.51582 37027 ft 534 kts 37°
2026-05-06 00:31 -30.92504 -55.45109 37026 ft 542 kts 52°
2026-05-06 00:32 -30.88717 -55.37500 37017 ft 544 kts 60°
2026-05-06 00:32 -30.85176 -55.29722 36995 ft 543 kts 60°
2026-05-06 00:33 -30.81605 -55.21987 37021 ft 542 kts 60°
2026-05-06 00:33 -30.77985 -55.14291 37023 ft 542 kts 60°
2026-05-06 00:34 -30.74348 -55.06619 37018 ft 542 kts 59°
2026-05-06 00:34 -30.70705 -54.98950 37016 ft 542 kts 60°
2026-05-06 00:35 -30.67060 -54.91279 37017 ft 542 kts 60°
2026-05-06 00:35 -30.63419 -54.83627 37039 ft 541 kts 60°
2026-05-06 00:36 -30.59798 -54.76031 37020 ft 541 kts 60°
2026-05-06 00:36 -30.56150 -54.68396 37031 ft 540 kts 60°
2026-05-06 00:37 -30.52501 -54.60773 37040 ft 540 kts 60°
2026-05-06 00:37 -30.48855 -54.53172 37043 ft 540 kts 60°
2026-05-06 00:38 -30.45201 -54.45572 37024 ft 539 kts 60°
2026-05-06 00:38 -30.41545 -54.37979 37044 ft 539 kts 60°
2026-05-06 00:39 -30.37887 -54.30397 37042 ft 540 kts 60°
2026-05-06 00:39 -30.34221 -54.22814 37054 ft 540 kts 59°
2026-05-06 00:40 -30.30549 -54.15233 37033 ft 540 kts 59°
2026-05-06 00:40 -30.26895 -54.07703 37057 ft 540 kts 59°
2026-05-06 00:41 -30.23213 -54.00132 37035 ft 540 kts 59°
2026-05-06 00:41 -30.19522 -53.92556 37023 ft 540 kts 59°
2026-05-06 00:42 -30.15826 -53.84983 37043 ft 542 kts 59°
2026-05-06 00:42 -30.12112 -53.77390 37050 ft 543 kts 59°
2026-05-06 00:43 -30.08383 -53.69780 37052 ft 545 kts 59°
2026-05-06 00:43 -30.04643 -53.62162 37049 ft 546 kts 59°
2026-05-06 00:44 -30.00893 -53.54539 37049 ft 546 kts 59°
2026-05-06 00:44 -29.97141 -53.46925 37043 ft 546 kts 59°
2026-05-06 00:45 -29.93412 -53.39373 37050 ft 545 kts 59°
2026-05-06 00:45 -29.89658 -53.31784 37049 ft 544 kts 59°
2026-05-06 00:46 -29.85906 -53.24216 37048 ft 544 kts 59°
2026-05-06 00:46 -29.82157 -53.16668 37054 ft 543 kts 59°
2026-05-06 00:47 -29.78406 -53.09129 37053 ft 542 kts 59°
2026-05-06 00:47 -29.74654 -53.01602 37061 ft 542 kts 59°
2026-05-06 00:48 -29.70899 -52.94084 37064 ft 542 kts 59°
2026-05-06 00:48 -29.67141 -52.86575 37073 ft 541 kts 59°
2026-05-06 00:49 -29.63383 -52.79077 37072 ft 541 kts 59°
2026-05-06 00:49 -29.59623 -52.71592 37078 ft 541 kts 59°
2026-05-06 00:50 -29.55861 -52.64116 37086 ft 540 kts 59°
2026-05-06 00:50 -29.52094 -52.56644 37074 ft 541 kts 59°
2026-05-06 00:51 -29.48318 -52.49167 37083 ft 542 kts 59°
2026-05-06 00:51 -29.44529 -52.41680 37087 ft 543 kts 59°
2026-05-06 00:52 -29.40732 -52.34189 37093 ft 544 kts 59°
2026-05-06 00:52 -29.36924 -52.26692 37088 ft 544 kts 59°
2026-05-06 00:53 -29.33139 -52.19252 37095 ft 543 kts 59°
2026-05-06 00:53 -29.29333 -52.11785 37087 ft 542 kts 59°
2026-05-06 00:54 -29.25527 -52.04334 37096 ft 542 kts 59°
2026-05-06 00:54 -29.21720 -51.96893 37104 ft 541 kts 59°
2026-05-06 00:55 -29.17909 -51.89456 37104 ft 541 kts 59°
2026-05-06 00:55 -29.14102 -51.82042 37117 ft 540 kts 59°
2026-05-06 00:56 -29.10293 -51.74637 37122 ft 540 kts 59°
2026-05-06 00:56 -29.06484 -51.67246 37127 ft 539 kts 59°
2026-05-06 00:57 -29.02675 -51.59871 37140 ft 538 kts 58°
2026-05-06 00:57 -28.98863 -51.52500 37141 ft 539 kts 58°
2026-05-06 00:58 -28.95048 -51.45136 37144 ft 539 kts 58°
2026-05-06 00:58 -28.91223 -51.37767 37157 ft 540 kts 58°
2026-05-06 00:59 -28.87394 -51.30404 37143 ft 540 kts 58°
2026-05-06 00:59 -28.83556 -51.23035 37156 ft 540 kts 58°
2026-05-06 01:00 -28.79709 -51.15663 37163 ft 542 kts 58°
2026-05-06 01:00 -28.75850 -51.08282 37172 ft 542 kts 58°
2026-05-06 01:01 -28.71982 -51.00897 37180 ft 542 kts 58°
2026-05-06 01:01 -28.68133 -50.93560 37181 ft 543 kts 58°
2026-05-06 01:02 -28.64257 -50.86184 37183 ft 542 kts 58°
2026-05-06 01:02 -28.60383 -50.78825 37189 ft 541 kts 58°
2026-05-06 01:03 -28.56513 -50.71488 37189 ft 540 kts 58°
2026-05-06 01:03 -28.52647 -50.64171 37200 ft 540 kts 58°
2026-05-06 01:04 -28.48781 -50.56867 37204 ft 539 kts 58°
2026-05-06 01:04 -28.44918 -50.49579 37234 ft 538 kts 58°
2026-05-06 01:05 -28.41048 -50.42293 37207 ft 538 kts 58°
2026-05-06 01:05 -28.37178 -50.35022 37215 ft 537 kts 58°
2026-05-06 01:06 -28.33308 -50.27760 37227 ft 537 kts 58°
2026-05-06 01:06 -28.29433 -50.20502 37224 ft 538 kts 58°
2026-05-06 01:07 -28.25552 -50.13241 37237 ft 538 kts 58°
2026-05-06 01:07 -28.21669 -50.05993 37242 ft 538 kts 58°
2026-05-06 01:08 -28.17771 -49.98729 37248 ft 539 kts 58°
2026-05-06 01:08 -28.13866 -49.91466 37252 ft 540 kts 58°
2026-05-06 01:09 -28.09961 -49.84212 37241 ft 539 kts 58°
2026-05-06 01:09 -28.06049 -49.76960 37242 ft 539 kts 58°
2026-05-06 01:10 -28.02134 -49.69713 37238 ft 539 kts 58°
2026-05-06 01:10 -27.98243 -49.62524 37233 ft 538 kts 58°
2026-05-06 01:11 -27.94312 -49.55273 37236 ft 537 kts 58°
2026-05-06 01:11 -27.90431 -49.48126 37216 ft 537 kts 58°
2026-05-06 01:12 -27.86527 -49.40948 37220 ft 536 kts 58°
2026-05-06 01:12 -27.82622 -49.33780 37213 ft 536 kts 58°
2026-05-06 01:13 -27.79375 -49.27831 37219 ft 534 kts 58°
2026-05-06 01:13 -27.75472 -49.20688 37208 ft 535 kts 58°
2026-05-06 01:14 -27.69600 -49.09963 37197 ft 536 kts 58°
2026-05-06 01:14 -27.65670 -49.02800 37186 ft 536 kts 58°
2026-05-06 01:15 -27.61743 -48.95652 37183 ft 536 kts 58°
2026-05-06 01:15 -27.57855 -48.88491 37174 ft 535 kts 59°
2026-05-06 01:16 -27.54011 -48.81356 37164 ft 535 kts 59°
2026-05-06 01:16 -27.50141 -48.74185 37152 ft 536 kts 59°
2026-05-06 01:17 -27.46254 -48.67012 37145 ft 536 kts 59°
2026-05-06 01:17 -27.42359 -48.59843 37140 ft 537 kts 59°
2026-05-06 01:18 -27.38453 -48.52665 37142 ft 538 kts 59°
2026-05-06 01:18 -27.34542 -48.45487 37143 ft 538 kts 58°
2026-05-06 01:19 -27.30632 -48.38323 37146 ft 537 kts 59°
2026-05-06 01:19 -27.26725 -48.31177 37143 ft 536 kts 58°
2026-05-06 01:20 -27.22840 -48.24083 37144 ft 536 kts 58°
2026-05-06 01:20 -27.18909 -48.16916 37147 ft 535 kts 59°
2026-05-06 01:21 -27.15028 -48.09851 37144 ft 535 kts 59°
2026-05-06 01:21 -27.11120 -48.02749 37147 ft 534 kts 58°
2026-05-06 01:22 -27.07213 -47.95661 37151 ft 534 kts 59°
2026-05-06 01:22 -27.03302 -47.88576 37149 ft 534 kts 59°
2026-05-06 01:23 -26.99396 -47.81511 37150 ft 533 kts 59°
2026-05-06 01:23 -26.95479 -47.74438 37149 ft 533 kts 59°
2026-05-06 01:24 -26.91563 -47.67379 37149 ft 533 kts 59°
2026-05-06 01:24 -26.87642 -47.60321 37145 ft 533 kts 59°
2026-05-06 01:25 -26.83722 -47.53277 37153 ft 533 kts 59°
2026-05-06 01:25 -26.79795 -47.46230 37148 ft 533 kts 59°
2026-05-06 01:26 -26.75870 -47.39198 37153 ft 533 kts 59°
2026-05-06 01:26 -26.71939 -47.32168 37154 ft 533 kts 59°
2026-05-06 01:27 -26.68008 -47.25147 37149 ft 532 kts 59°
2026-05-06 01:27 -26.64078 -47.18139 37149 ft 532 kts 59°
2026-05-06 01:28 -26.60147 -47.11142 37151 ft 531 kts 59°
2026-05-06 01:28 -26.56241 -47.04198 37148 ft 531 kts 59°
2026-05-06 01:29 -26.52311 -46.97224 37159 ft 530 kts 59°
2026-05-06 01:29 -26.48383 -46.90262 37156 ft 530 kts 59°
2026-05-06 01:30 -26.44456 -46.83310 37153 ft 529 kts 59°
2026-05-06 01:30 -26.40510 -46.76379 37156 ft 529 kts 56°
2026-05-06 01:31 -26.35890 -46.70008 37159 ft 529 kts 46°
2026-05-06 01:31 -26.30764 -46.64124 37147 ft 529 kts 45°
2026-05-06 01:32 -26.25634 -46.58235 37159 ft 529 kts 46°
2026-05-06 01:32 -26.20526 -46.52305 37161 ft 530 kts 46°
2026-05-06 01:33 -26.15436 -46.46371 37159 ft 530 kts 46°
2026-05-06 01:33 -26.10345 -46.40445 37161 ft 530 kts 46°
2026-05-06 01:34 -26.05244 -46.34522 37161 ft 530 kts 46°
2026-05-06 01:34 -26.00144 -46.28609 37159 ft 529 kts 46°
2026-05-06 01:35 -25.95043 -46.22703 37161 ft 529 kts 46°
2026-05-06 01:35 -25.89986 -46.16854 37165 ft 529 kts 46°
2026-05-06 01:36 -25.84890 -46.10969 37162 ft 528 kts 46°
2026-05-06 01:36 -25.79796 -46.05094 37159 ft 528 kts 46°
2026-05-06 01:37 -25.74708 -45.99232 37163 ft 527 kts 46°
2026-05-06 01:37 -25.69616 -45.93373 37169 ft 527 kts 46°
2026-05-06 01:38 -25.64529 -45.87529 37163 ft 527 kts 46°
2026-05-06 01:38 -25.59437 -45.81694 37163 ft 527 kts 46°
2026-05-06 01:39 -25.54374 -45.75898 37162 ft 526 kts 46°
2026-05-06 01:39 -25.49283 -45.70076 37156 ft 526 kts 46°
2026-05-06 01:40 -25.44195 -45.64263 37165 ft 526 kts 46°
2026-05-06 01:40 -25.39096 -45.58445 37166 ft 526 kts 46°
2026-05-06 01:41 -25.33992 -45.52629 37168 ft 527 kts 46°
2026-05-06 01:41 -25.28892 -45.46826 37165 ft 527 kts 46°
2026-05-06 01:42 -25.23783 -45.41018 37166 ft 526 kts 46°
2026-05-06 01:42 -25.18678 -45.35225 37173 ft 526 kts 46°
2026-05-06 01:43 -25.13570 -45.29434 37170 ft 526 kts 46°
2026-05-06 01:43 -25.08462 -45.23651 37166 ft 526 kts 46°
2026-05-06 01:44 -25.03358 -45.17879 37173 ft 526 kts 46°
2026-05-06 01:44 -24.98250 -45.12110 37170 ft 525 kts 46°
2026-05-06 01:45 -24.93148 -45.06356 37172 ft 525 kts 46°
2026-05-06 01:45 -24.88039 -45.00601 37171 ft 525 kts 46°
2026-05-06 01:46 -24.82931 -44.94854 37172 ft 525 kts 46°
2026-05-06 01:46 -24.77850 -44.89146 37178 ft 525 kts 46°
2026-05-06 01:47 -24.72739 -44.83409 37178 ft 525 kts 46°
2026-05-06 01:47 -24.67626 -44.77677 37191 ft 525 kts 46°
2026-05-06 01:48 -24.62511 -44.71951 37177 ft 525 kts 46°
2026-05-06 01:48 -24.57399 -44.66232 37178 ft 524 kts 46°
2026-05-06 01:49 -24.52252 -44.60554 37178 ft 524 kts 42°
2026-05-06 01:49 -24.46464 -44.55721 37181 ft 522 kts 31°
2026-05-06 01:50 -24.40081 -44.51957 37184 ft 520 kts 25°
2026-05-06 01:50 -24.36834 -44.50187 36783 ft 526 kts 25°
2026-05-06 01:50 -24.33514 -44.48375 35836 ft 534 kts 25°
2026-05-06 01:51 -24.30647 -44.46798 35095 ft 534 kts 25°
2026-05-06 01:51 -24.27339 -44.44963 34551 ft 529 kts 26°
2026-05-06 01:51 -24.24080 -44.43144 33965 ft 524 kts 26°
2026-05-06 01:51 -24.20845 -44.41333 33395 ft 518 kts 26°
2026-05-06 01:52 -24.17655 -44.39548 32855 ft 512 kts 26°
2026-05-06 01:52 -24.14500 -44.37784 32335 ft 507 kts 25°
2026-05-06 01:52 -24.11375 -44.36040 31805 ft 501 kts 26°
2026-05-06 01:52 -24.08286 -44.34319 31303 ft 496 kts 25°
2026-05-06 01:53 -24.05222 -44.32612 30795 ft 491 kts 25°
2026-05-06 01:53 -24.02191 -44.30925 30303 ft 487 kts 25°
2026-05-06 01:53 -23.99189 -44.29254 29729 ft 482 kts 25°
2026-05-06 01:53 -23.96217 -44.27601 29185 ft 477 kts 25°
2026-05-06 01:54 -23.93314 -44.25905 28637 ft 470 kts 31°
2026-05-06 01:54 -23.90770 -44.23706 28167 ft 465 kts 45°
2026-05-06 01:54 -23.88683 -44.21052 27738 ft 458 kts 54°
2026-05-06 01:54 -23.87085 -44.18079 27304 ft 451 kts 66°
2026-05-06 01:55 -23.85812 -44.14979 26907 ft 444 kts 66°
2026-05-06 01:55 -23.84516 -44.11930 26489 ft 440 kts 65°
2026-05-06 01:55 -23.83189 -44.08938 26081 ft 433 kts 62°
2026-05-06 01:55 -23.81421 -44.06314 25667 ft 430 kts 42°
2026-05-06 01:56 -23.78972 -44.04461 25288 ft 429 kts 25°
2026-05-06 01:56 -23.76167 -44.03348 24891 ft 429 kts 10°
2026-05-06 01:56 -23.73215 -44.03010 24504 ft 425 kts
2026-05-06 01:56 -23.70267 -44.02883 24088 ft 424 kts
2026-05-06 01:57 -23.67313 -44.02763 23673 ft 424 kts
2026-05-06 01:57 -23.64381 -44.02619 23213 ft 421 kts
2026-05-06 01:57 -23.61475 -44.02447 22795 ft 416 kts
2026-05-06 01:57 -23.58606 -44.02264 22406 ft 410 kts
2026-05-06 01:58 -23.55779 -44.02080 22039 ft 404 kts
2026-05-06 01:58 -23.52996 -44.01900 21708 ft 398 kts
2026-05-06 01:58 -23.50282 -44.01726 21400 ft 393 kts
2026-05-06 01:58 -23.47576 -44.01553 21063 ft 388 kts
2026-05-06 01:59 -23.44883 -44.01383 20674 ft 386 kts
2026-05-06 01:59 -23.42209 -44.01215 20294 ft 384 kts
2026-05-06 01:59 -23.39552 -44.01048 19918 ft 382 kts
2026-05-06 01:59 -23.36907 -44.00881 19537 ft 379 kts
2026-05-06 02:00 -23.34282 -44.00716 19138 ft 377 kts
2026-05-06 02:00 -23.31665 -44.00552 18760 ft 375 kts
2026-05-06 02:00 -23.29071 -44.00388 18373 ft 373 kts
2026-05-06 02:00 -23.26491 -44.00226 17964 ft 370 kts
2026-05-06 02:01 -23.23936 -44.00065 17574 ft 366 kts
2026-05-06 02:01 -23.21405 -43.99905 17197 ft 363 kts
2026-05-06 02:01 -23.18901 -43.99747 16834 ft 359 kts
2026-05-06 02:01 -23.16409 -43.99591 16474 ft 357 kts
2026-05-06 02:02 -23.13939 -43.99435 16124 ft 354 kts
2026-05-06 02:02 -23.11479 -43.99281 15774 ft 355 kts
2026-05-06 02:02 -23.09004 -43.99125 15419 ft 358 kts
2026-05-06 02:02 -23.06505 -43.98968 15064 ft 361 kts
2026-05-06 02:03 -23.03997 -43.98810 14689 ft 361 kts
2026-05-06 02:03 -23.01482 -43.98652 14330 ft 361 kts
2026-05-06 02:03 -22.98974 -43.98495 13952 ft 361 kts
2026-05-06 02:03 -22.96479 -43.98329 13547 ft 354 kts
2026-05-06 02:04 -22.94152 -43.97632 13163 ft 346 kts 29°
2026-05-06 02:04 -22.92272 -43.96055 12850 ft 341 kts 48°
2026-05-06 02:04 -22.90911 -43.93969 12497 ft 338 kts 63°
2026-05-06 02:04 -22.89880 -43.91684 12175 ft 337 kts 65°
2026-05-06 02:05 -22.88890 -43.89389 11829 ft 337 kts 65°
2026-05-06 02:05 -22.87900 -43.87095 11512 ft 333 kts 65°
2026-05-06 02:05 -22.86915 -43.84834 11152 ft 324 kts 65°
2026-05-06 02:05 -22.85982 -43.82715 10769 ft 300 kts 65°
2026-05-06 02:06 -22.85102 -43.80732 10300 ft 285 kts 65°
2026-05-06 02:06 -22.84256 -43.78832 9702 ft 276 kts 65°
2026-05-06 02:06 -22.83419 -43.76956 9410 ft 275 kts 65°
2026-05-06 02:06 -22.82582 -43.75085 9226 ft 276 kts 65°
2026-05-06 02:07 -22.81758 -43.73244 9193 ft 274 kts 65°
2026-05-06 02:07 -22.80952 -43.71356 9156 ft 271 kts 71°
2026-05-06 02:07 -22.80443 -43.69393 8944 ft 271 kts 77°
2026-05-06 02:07 -22.80033 -43.67432 8631 ft 270 kts 78°
2026-05-06 02:08 -22.79599 -43.65436 8242 ft 265 kts 77°
2026-05-06 02:08 -22.79171 -43.63540 7703 ft 260 kts 77°
2026-05-06 02:08 -22.78734 -43.61624 7375 ft 267 kts 77°
2026-05-06 02:08 -22.78275 -43.59637 7033 ft 275 kts 77°
2026-05-06 02:09 -22.77807 -43.57630 6711 ft 276 kts 77°
2026-05-06 02:09 -22.77340 -43.55641 6320 ft 264 kts 75°
2026-05-06 02:09 -22.76729 -43.53830 5925 ft 249 kts 67°
2026-05-06 02:09 -22.76035 -43.52166 5581 ft 236 kts 66°
2026-05-06 02:10 -22.75372 -43.50593 5244 ft 222 kts 66°
2026-05-06 02:10 -22.74760 -43.49107 5013 ft 214 kts 67°
2026-05-06 02:10 -22.74152 -43.47608 4705 ft 222 kts 67°
2026-05-06 02:10 -22.73533 -43.46070 4337 ft 219 kts 67°
2026-05-06 02:11 -22.72941 -43.44595 4008 ft 207 kts 67°
2026-05-06 02:11 -22.72385 -43.43208 3709 ft 194 kts 67°
2026-05-06 02:11 -22.71937 -43.41884 3406 ft 181 kts 84°
2026-05-06 02:11 -22.72054 -43.40591 3216 ft 168 kts 102°
2026-05-06 02:12 -22.72535 -43.39501 2952 ft 155 kts 130°
2026-05-06 02:12 -22.73185 -43.38613 2776 ft 147 kts 124°
2026-05-06 02:12 -22.73752 -43.37730 2615 ft 142 kts 124°
2026-05-06 02:12 -22.74333 -43.36840 2408 ft 146 kts 124°
2026-05-06 02:13 -22.74922 -43.35942 2183 ft 146 kts 124°
2026-05-06 02:13 -22.75512 -43.35052 1996 ft 145 kts 124°
2026-05-06 02:13 -22.76098 -43.34161 1815 ft 144 kts 124°
2026-05-06 02:13 -22.76683 -43.33275 1726 ft 147 kts 124°
2026-05-06 02:14 -22.77278 -43.32359 1427 ft 150 kts 123°
2026-05-06 02:14 -22.77868 -43.31453 1085 ft 144 kts 123°
2026-05-06 02:14 -22.78433 -43.30585 832 ft 139 kts 124°
2026-05-06 02:14 -22.79001 -43.29726 683 ft 141 kts 124°
2026-05-06 02:15 -22.79577 -43.28853 554 ft 143 kts 125°
2026-05-06 02:15 -22.80158 -43.27984 370 ft 142 kts 126°
2026-05-06 02:15 -22.80734 -43.27126 213 ft 140 kts 125°
2026-05-06 02:15 -22.81301 -43.26270 66 ft 140 kts 126°
2026-05-06 02:16 -22.81849 -43.25451 29 ft 108 kts 126°
2026-05-06 02:16 -22.82178 -43.24958 28 ft 64 kts 126°
2026-05-06 02:16 -22.82323 -43.24712 26 ft 26 kts 110°
2026-05-06 02:16 -22.82356 -43.24574 26 ft 16 kts 100°
2026-05-06 02:17 -22.82354 -43.24460 23 ft 16 kts 61°
2026-05-06 02:17 -22.82274 -43.24380 28 ft 16 kts 32°
2026-05-06 02:17 -22.82202 -43.24326 26 ft 12 kts 38°
2026-05-06 02:17 -22.82122 -43.24313 32 ft 12 kts 355°
2026-05-06 02:18 -22.82035 -43.24321 26 ft 13 kts 353°
2026-05-06 02:18 -22.81985 -43.24328 26 ft 0 kts 353°
2026-05-06 02:18 -22.81981 -43.24328 26 ft 1 kts 353°
2026-05-06 02:18 -22.81969 -43.24330 26 ft 0 kts 352°